Location: London
(51.5074°N, 0.1278°W)
Time: 07:07:50
(UTC+01:00)

Envisat - Pass Details

Date: 28 September 2021
Orbit: 764 x 766 km, 98.2° (Epoch: 27 October)

Event Time Altitude Azimuth Distance (km) Brightness Sun altitude
Rises 04:44:30 0° 28° (NNE) 3,245 7.1 -20.8°
Reaches altitude 10° 04:47:58 10° 53° (NE) 2,311 6.6 -20.3°
Maximum altitude 04:50:40 14° 85° (E) 2,022 6.1 -19.9°
Drops below altitude 10° 04:53:21 10° 118° (ESE) 2,302 6.0 -19.5°
Sets 04:56:47 0° 142° (SE) 3,221 6.4 -19.0°
